sat.trackr.live / text

‹ back to catalog

STARLINK-37408

NORAD 69518 · 2026-133L

PAYLOAD ACTIVE UNKNOWN

§ Identity

Operator
Country
US
Launch date
2026-06-12
Launch site
AFETR
Launch vehicle
Mass (kg)
RCS (m²)

Purposes: comms

External: N2YO · Heavens-Above · Gunter

§ Orbital elements

Epoch: 2026-09-20T04:11:43.422432Z

Period
93.85 min
Inclination
53.1581°
Eccentricity
0.0001562
Mean motion
15.34399201 rev/d
Perigee alt
461.6 km
Apogee alt
463.8 km
Semi-major
6,840.8 km
B*
7.3589e-4
RAAN
231.2671°
Arg perigee
101.3057°
Mean anomaly
258.8121°
Rev number
1,671

§ Raw data

STARLINK-374081 69518U 26133L   26263.17480813  .00024568  00000+0  73589-3 0  99942 69518  53.1581 231.2671 0001562 101.3057 258.8121 15.34399201 16716

JSON: /api/v1/satellites/69518 · /tle

For live sub-satellite position, see the globe view (requires WebGL).

§ Visibility from observer

Set your observer location to see the next 7 days of passes ≥ 10°. The values pass through the URL so the page stays shareable.

No JS? Fill the form by hand. The geolocation button needs JavaScript.